Stations météo

réclame
Mon MeteoGroup
Bolzano, Italie (16020): Température de l'air & dewpoint: 05.12.2017 23:00:00 - 11.12.2017 23:00:00 (CET)Bolzano, Italie (16020): Vitesse du vent: 05.12.2017 23:00:00 - 11.12.2017 23:00:00 (CET)Bolzano, Italie (16020): Direction du vent: 05.12.2017 23:00:00 - 11.12.2017 23:00:00 (CET)Bolzano, Italie (16020): reduced air pressure: 05.12.2017 23:00:00 - 11.12.2017 23:00:00 (CET)Bolzano, Italie (16020): visibility: 05.12.2017 23:00:00 - 11.12.2017 23:00:00 (CET)Bolzano, Italie (16020): Quantités de précipitations: 05.12.2017 23:00:00 - 11.12.2017 23:00:00 (CET)
Date & Time tt [°C] td [°C] ff [km/h] ff [knt] dd ppp [hPa] vv [km] rr [mm]
11.12.2017 23:00:00 0,0 0,0 4 2 - - 1,2 -
11.12.2017 22:00:00 0,1 0,1 2 1 - 998,4 1,0 -
11.12.2017 21:00:00 0,0 0,0 0 0 N - 1,2 -
11.12.2017 20:00:00 0,0 0,0 0 0 N - 1,3 -
11.12.2017 19:00:00 -0,1 -0,1 0 0 N 999,6 2,0 -
11.12.2017 18:00:00 0,0 0,0 4 2 - - 2,5 -
11.12.2017 17:00:00 0,0 0,0 4 2 - - 2,0 -
11.12.2017 16:00:00 -0,3 -0,6 4 2 - 999,6 4,0 -
11.12.2017 15:00:00 0,0 -1,0 0 0 N - 4,0 -
11.12.2017 14:00:00 -1,0 -1,0 0 0 N - 3,0 -
11.12.2017 13:00:00 -0,8 -1,5 0 0 N 1000,4 2,5 -
11.12.2017 12:00:00 -1,0 -2,0 0 0 N - 2,5 -
11.12.2017 11:00:00 -2,0 -2,0 4 2 - - 2,0 -
11.12.2017 10:00:00 -2,2 -2,3 0 0 N 1003,2 2,0 -
11.12.2017 09:00:00 -3,0 -3,0 0 0 N - 0,6 -
11.12.2017 08:00:00 -3,0 -3,0 0 0 N - 1,0 -
11.12.2017 07:00:00 -2,9 -3,0 0 0 N 1003,8 1,5 0,0
11.12.2017 06:00:00 - - - - - - - -
11.12.2017 05:00:00 - - - - - - - -
11.12.2017 04:00:00 -2,9 -3,2 2 1 S 1006,4 - -
11.12.2017 03:00:00 - - - - - - - -
11.12.2017 02:00:00 - - - - - - - -
11.12.2017 01:00:00 -3,0 -3,4 2 1 NW 1007,3 - 0,0
11.12.2017 00:00:00 - - - - - - - -
10.12.2017 23:00:00 -3,0 -3,0 0 0 N - 2,0 -
10.12.2017 22:00:00 -2,9 -3,1 0 0 N 1008,4 1,5 -
10.12.2017 21:00:00 -3,0 -3,0 2 1 S - 2,0 -
10.12.2017 20:00:00 -3,0 -3,0 5 3 SSE - 2,5 -
10.12.2017 19:00:00 -2,7 -3,3 4 2 SSE 1009,3 4,0 0,0
10.12.2017 18:00:00 -3,0 -4,0 5 3 S - 5 -
10.12.2017 17:00:00 -2,0 -6,0 8 4 S - 5 -
10.12.2017 16:00:00 -0,6 -8,6 9 5 S 1009,7 8 -
10.12.2017 15:00:00 0,0 -13,0 4 2 - - 10 -
10.12.2017 14:00:00 1,0 -12,0 0 0 N - 10 -
10.12.2017 13:00:00 0,4 -12,3 2 1 - 1011,8 10 0,0
10.12.2017 12:00:00 -1,0 -12,0 4 2 - - 10 -
10.12.2017 11:00:00 -1,0 -12,0 2 1 - - 10 -
10.12.2017 10:00:00 -1,1 -12,1 4 2 ESE 1015,6 10 -
10.12.2017 09:00:00 -1,0 -12,0 2 1 - - 10 -
10.12.2017 08:00:00 -4,0 -11,0 0 0 N - 10 -
10.12.2017 07:00:00 -4,7 -12,0 0 0 N 1016,9 10 0,0
10.12.2017 06:00:00 - - - - - - - -
10.12.2017 05:00:00 - - - - - - - -
10.12.2017 04:00:00 -4,1 -12,1 2 1 E 1017,6 - -
10.12.2017 03:00:00 - - - - - - - -
10.12.2017 02:00:00 - - - - - - - -
10.12.2017 01:00:00 -2,7 -12,3 5 3 SSE 1019,0 - 0,0
10.12.2017 00:00:00 - - - - - - - -
09.12.2017 23:00:00 -1,0 -13,0 4 2 ENE - 10 -
09.12.2017 22:00:00 -2,1 -13,1 0 0 N 1018,8 10 -
09.12.2017 21:00:00 1,0 -14,0 21 11 N - 10 -
09.12.2017 20:00:00 1,0 -14,0 13 7 N - 10 -
09.12.2017 19:00:00 4,1 -18,4 13 7 NE 1017,1 10 0,0
09.12.2017 18:00:00 4,0 -17,0 8 4 NE - 10 -
09.12.2017 17:00:00 5,0 -18,0 22 12 E - 10 -
09.12.2017 16:00:00 5,6 -18,4 13 7 ENE 1015,2 10 -
09.12.2017 15:00:00 7,0 -18,0 16 9 NE - 10 -
09.12.2017 14:00:00 7,0 -17,0 13 7 ENE - 10 -
09.12.2017 13:00:00 6,7 -17,9 11 6 NE 1013,1 10 0,0
09.12.2017 12:00:00 7,0 -15,0 9 5 NE - 10 -
09.12.2017 11:00:00 6,0 -15,0 11 6 NE - 10 -
09.12.2017 10:00:00 5,4 -14,3 15 8 NE 1013,5 10 -
09.12.2017 09:00:00 5,0 -14,0 15 8 NNE - 10 -
09.12.2017 08:00:00 3,0 -12,0 9 5 N - 10 -
09.12.2017 07:00:00 4,7 -13,3 13 7 NNE 1010,9 10 0,0
09.12.2017 06:00:00 - - - - - - - -
09.12.2017 05:00:00 - - - - - - - -
09.12.2017 04:00:00 4,1 -8,1 11 6 N 1008,5 - -
09.12.2017 03:00:00 - - - - - - - -
09.12.2017 02:00:00 - - - - - - - -
09.12.2017 01:00:00 3,5 -1,4 8 4 NW 1008,3 - 0,0
09.12.2017 00:00:00 - - - - - - - -
08.12.2017 23:00:00 1,0 -1,0 0 0 N - 10 -
08.12.2017 22:00:00 1,3 -1,8 5 3 - 1010,0 10 -
08.12.2017 21:00:00 2,0 -1,0 5 3 ESE - 10 -
08.12.2017 20:00:00 3,0 -2,0 0 0 N - 10 -
08.12.2017 19:00:00 2,8 -3,1 0 0 N 1010,3 10 0,0
08.12.2017 18:00:00 3,0 -3,0 5 3 - - 10 -
08.12.2017 17:00:00 3,0 -2,0 0 0 N - 10 -
08.12.2017 16:00:00 3,8 -4,0 4 2 - 1011,2 10 -
08.12.2017 15:00:00 5,0 -4,0 2 1 WNW - 10 -
08.12.2017 14:00:00 4,0 -3,0 2 1 N - 10 -
08.12.2017 13:00:00 4,0 -4,2 5 3 N 1014,2 10 0,0
08.12.2017 12:00:00 4,0 -4,0 5 3 - - 10 -
08.12.2017 11:00:00 4,0 -3,0 2 1 N - 10 -
08.12.2017 10:00:00 2,4 -2,1 2 1 SE 1018,5 10 -
08.12.2017 09:00:00 0,0 -2,0 2 1 - - 10 -
08.12.2017 08:00:00 0,0 -2,0 4 2 - - 10 -
08.12.2017 07:00:00 0,0 -2,5 2 1 - 1020,4 10 0,0
08.12.2017 06:00:00 - - - - - - - -
08.12.2017 05:00:00 - - - - - - - -
08.12.2017 04:00:00 -0,1 -2,4 2 1 SE 1022,8 - -
08.12.2017 03:00:00 - - - - - - - -
08.12.2017 02:00:00 - - - - - - - -
08.12.2017 01:00:00 0,1 -2,3 4 2 W 1025,4 - 0,0
08.12.2017 00:00:00 - - - - - - - -
07.12.2017 23:00:00 0,0 -3,0 0 0 N - 10 -
07.12.2017 22:00:00 -0,5 -3,2 0 0 N 1027,7 10 -
07.12.2017 21:00:00 -1,0 -4,0 4 2 - - 10 -
07.12.2017 20:00:00 -2,0 -4,0 2 1 - - 10 -
07.12.2017 19:00:00 -1,8 -4,4 0 0 N 1028,6 10 0,0
07.12.2017 18:00:00 0,0 -4,0 0 0 N - 10 -
07.12.2017 17:00:00 1,0 -4,0 2 1 - - 10 -
07.12.2017 16:00:00 3,0 -4,0 2 1 - 1027,8 10 -
07.12.2017 15:00:00 7,0 -4,0 4 2 - - 10 -
07.12.2017 14:00:00 7,0 -4,0 2 1 - - 10 -
07.12.2017 13:00:00 6,1 -3,4 2 1 - 1028,9 10 0,0
07.12.2017 12:00:00 4,0 -4,0 0 0 N - 10 -
07.12.2017 11:00:00 2,0 -3,0 0 0 N - 10 -
07.12.2017 10:00:00 1,0 -2,5 2 1 - 1032,6 10 -
07.12.2017 09:00:00 -6,0 -7,0 0 0 N - 10 -
07.12.2017 08:00:00 -7,0 -8,0 2 1 - - 10 -
07.12.2017 07:00:00 -6,9 -8,5 2 1 - 1033,6 10 0,0
07.12.2017 06:00:00 - - - - - - - -
07.12.2017 05:00:00 - - - - - - - -
07.12.2017 04:00:00 -5,6 -6,3 0 0 N 1033,5 - -
07.12.2017 03:00:00 - - - - - - - -
07.12.2017 02:00:00 - - - - - - - -
07.12.2017 01:00:00 -5,5 -6,9 2 1 ESE 1033,8 - 0,0
07.12.2017 00:00:00 - - - - - - - -
06.12.2017 23:00:00 -1,0 -3,0 2 1 - - 10 -
06.12.2017 22:00:00 -2,1 -3,2 0 0 N 1033,8 10 -
06.12.2017 21:00:00 -3,0 -5,0 2 1 - - 10 -
06.12.2017 20:00:00 -2,0 -4,0 0 0 N - 10 -
06.12.2017 19:00:00 -1,8 -4,4 0 0 N 1033,4 10 0,0
06.12.2017 18:00:00 -1,0 -4,0 4 2 NNW - 10 -
06.12.2017 17:00:00 2,0 -3,0 0 0 N - 10 -
06.12.2017 16:00:00 4,2 -2,8 2 1 - 1031,6 10 -
06.12.2017 15:00:00 9,0 -3,0 4 2 - - 10 -
06.12.2017 14:00:00 9,0 -3,0 2 1 - - 10 -
06.12.2017 13:00:00 8,6 -3,0 2 1 - 1032,6 10 0,0
06.12.2017 12:00:00 6,0 -3,0 0 0 N - 10 -
06.12.2017 11:00:00 4,0 -3,0 2 1 - - 10 -
06.12.2017 10:00:00 2,7 -1,5 2 1 - 1035,8 10 -
06.12.2017 09:00:00 -5,0 -5,0 2 1 - - 10 -
06.12.2017 08:00:00 -4,0 -6,0 0 0 N - 10 -
06.12.2017 07:00:00 -4,8 -5,8 4 2 - 1036,5 10 0,0
06.12.2017 06:00:00 - - - - - - - -
06.12.2017 05:00:00 - - - - - - - -
06.12.2017 04:00:00 -4,6 -6,2 4 2 NNW 1036,7 - -
06.12.2017 03:00:00 - - - - - - - -
06.12.2017 02:00:00 - - - - - - - -
06.12.2017 01:00:00 -3,3 -4,9 2 1 N 1037,1 - 0,0
06.12.2017 00:00:00 - - - - - - - -
05.12.2017 23:00:00 -3,0 -5,0 4 2 - - 10 -

tt = Température de l'air
td = dewpoint
ff = Vitesse du vent
dd = Direction du vent
ppp = reduced air pressure
vv = visibility
rr = Quantités de précipitations

stations d'obs. à proximité